Location: Brad
(46.1333°N, 22.7833°E)
Time: 21:16:48
(UTC+00:00)

Cosmos 2333 Rocket - Pass Details

Date: 03 February 2023
Orbit: 837 x 864 km, 70.8° (Epoch: 23 March)

Event Time Altitude Azimuth Distance (km) Brightness Sun altitude
Rises 18:12:09 0° 219° (SW) 3,380 5.8 -27.2°
Reaches altitude 10° 18:14:37 10° 224° (SW) 2,451 5.0 -27.6°
Maximum altitude 18:20:08 55° 301° (WNW) 1,009 2.8 -28.6°
Enters shadow 18:22:25 34° 2° (N) 1,374 3.3 -29.0°
